Content
SEND FEEDBACK

Daily
Averages
Monthly
Summary
United States of America

ASHEVILLE, NORTH CAROLINA


Home > North America > United States > North Carolina
Elevation: 2240 feet     Latitude: 35 36N     Longitude: 082 32W

WEATHER
 
SELECT A DAY
Number of Records: 225,800;   Date Range: 1/1/95 - 7/28/14
 
SHARE

PRINT THIS DATA

[ ← Previous Day ]
WEATHER ALMANAC - NOVEMBER 29, 2013
[ Next Day → ]
[ °C ]   °F
Weather ElementAverageHighLow
Temperature36.7 °F53.1 °F (3:54 pm)24.1 °F (3:54 am)
Dewpoint21.7 °F25 °F (8:54 pm)17.1 °F (3:54 pm)
Humidity59.6 %88 % (1:54 am)24 % (3:54 pm)
Barometer30.51 in30.58 in (9:54 pm)30.45 in (2:54 am)
Wind Speed4.9 mph12.7 mph (11:54 am)
Weather ElementAverage
Visibility10 mi
Wind DirectionS (177.4 °)

Weather ElementTotal
Precipitation---
Heating Degree Days26.4 (Base 65)
Averaged from 23 records on November 29, 2013
WEATHER CONDITIONS BREAKOUT
WIND DIRECTION BREAKOUT
WEATHER BY HOUR - NOVEMBER 29, 2013
[ °C ]   °F
Local TimeTemperatureDewpointHumidityBarometerVisibilityWind DirectionWind SpeedGust SpeedPrecipitationEventsConditions
1:54 AM25.0 °F21.9 °F88 %30.46 in10.0 miNNW (340°)5.8 mphClear
2:54 AM27.0 °F21.9 °F81 %30.45 in10.0 miCalmClear
3:54 AM24.1 °F21.0 °F88 %30.46 in10.0 miCalmClear
4:54 AM25.0 °F21.0 °F85 %30.47 in10.0 miCalmClear
5:54 AM25.0 °F21.0 °F85 %30.49 in10.0 miCalmClear
6:54 AM28.9 °F21.9 °F75 %30.51 in10.0 miNorth (350°)9.2 mphClear
7:54 AM30.0 °F21.9 °F72 %30.53 in10.0 miNNW (340°)9.2 mphClear
8:54 AM34.0 °F21.0 °F59 %30.54 in10.0 miNorth (350°)9.2 mphClear
9:54 AM37.0 °F19.9 °F50 %30.55 in10.0 miNorth (350°)11.5 mphClear
10:54 AM41.0 °F21.0 °F45 %30.55 in10.0 miNorth (350°)10.4 mphClear
11:54 AM46.0 °F19.0 °F34 %30.52 in10.0 miNorth (350°)12.7 mphClear
12:54 PM48.9 °F21.9 °F35 %30.49 in10.0 miNNW (340°)12.7 mphClear
1:54 PM52.0 °F21.9 °F31 %30.47 in10.0 miNW (320°)9.2 mphClear
2:54 PM52.0 °F19.9 °F28 %30.45 in10.0 miNNW (330°)6.9 mphClear
3:54 PM53.1 °F17.1 °F24 %30.46 in10.0 miNNW (340°)6.9 mphClear
4:54 PM48.0 °F21.9 °F36 %30.48 in10.0 miSSE (160°)4.6 mphClear
5:54 PM45.0 °F21.9 °F40 %30.51 in10.0 miSSE (160°)4.6 mphClear
6:54 PM41.0 °F21.9 °F47 %30.53 in10.0 miCalmClear
7:54 PM37.0 °F23.0 °F57 %30.55 in10.0 miCalmClear
8:54 PM34.0 °F25.0 °F70 %30.56 in10.0 miCalmClear
9:54 PM30.9 °F25.0 °F79 %30.58 in10.0 miCalmClear
10:54 PM30.0 °F24.1 °F79 %30.57 in10.0 miCalmClear
11:54 PM28.9 °F24.1 °F82 %30.58 in10.0 miCalmClear
Hourly data recorded from KAVL, located miles away from Asheville, North Carolina







STORIES FROM OUR PARTNERS